This demonstration page uses our WeatherBlox Daily Observations layout. Learn more.

Left ArrowRight Arrow

39.01783, -85.05884

Hourly Observations for September 28, 2020

Temp ( °F °C ) Dew Point ( °F °C ) Humidity (%) Winds ( mph kmh ) Pressure ( in mb ) Visibility ( mi km ) Precip ( " mm )
12:52 am 00:52 Partly Cloudy 62 16.7 59 15 90 90 S 8 13 29.77 1008 10 16 0.00 0.00
1:52 am 01:52 Mostly Cloudy 62 16.7 59 15 90 90 S 6 9 29.76 1008 10 16 0.00 0.00
2:52 am 02:52 Mostly Cloudy 62 16.7 59 15 90 90 S 7 11 29.74 1007 10 16 0.00 0.00
3:52 am 03:52 Mostly Cloudy 63 17.2 59 15 87 87 S 8 13 29.73 1007 10 16 0.00 0.00
4:52 am 04:52 Partly Cloudy 62 16.7 58 14.4 86 86 S 7 11 29.72 1007 10 16 0.00 0.00
5:52 am 05:52 Mostly Cloudy 63 17.2 59 15 87 87 S 8 13 29.72 1007 10 16 0.00 0.00
6:52 am 06:52 Mostly Cloudy 63 17.2 59 15 87 87 S 8 13 29.74 1007 10 16 0.00 0.00
7:52 am 07:52 Cloudy 64 17.8 59 15 84 84 SSW 8 13 29.75 1007 10 16 0.00 0.00
8:52 am 08:52 Cloudy 65 18.3 61 16.1 87 87 SSW 12 19 29.75 1007 10 16 0.00 0.00
9:52 am 09:52 Cloudy 67 19.4 62 16.7 84 84 S 13 20 29.73 1007 10 16 0.00 0.00
10:52 am 10:52 Cloudy 71 21.7 63 17.2 76 76 S 13 20 29.72 1007 10 16 0.00 0.00
11:21 am 11:21 Cloudy with Drizzle 70 21.1 62 16.7 76 76 S 13 20 29.71 1006 10 16 0.00 0.00
11:43 am 11:43 Cloudy with Light Rain 69 20.6 63 17.2 81 81 SSW 9 15 29.71 1006 10 16 0.00 0.00
11:52 am 11:52 Cloudy with Light Rain 69 20.6 63 17.2 81 81 SSW 7 11 29.71 1006 10 16 0.00 0.00
12:52 pm 12:52 Mostly Cloudy 71 21.7 64 17.8 79 79 SSW 9 15 29.70 1006 10 16 0.00 0.00
12:59 pm 12:59 Cloudy 71 21.7 64 17.8 79 79 SW 8 13 29.70 1006 10 16 0.00 0.00
1:38 pm 13:38 Cloudy with Light Rain 71 21.7 65 18.3 81 81 SSW 6 9 29.68 1005 10 16 0.00 0.00
1:52 pm 13:52 Cloudy with Rain 70 21.1 65 18.3 84 84 SSW 6 9 29.67 1005 5 8 0.01 0.25
1:54 pm 13:54 Cloudy with Rain 69 20.6 65 18.3 87 87 SSW 8 13 29.67 1005 2 3 0.01 0.25
2:02 pm 14:02 Cloudy with Light Rain 69 20.6 65 18.3 87 87 SSW 13 20 29.67 1005 2 3 0.03 0.76
2:15 pm 14:15 Cloudy with Light Rain 69 20.6 64 17.8 84 84 SSW 21 33 29.67 1005 7 11 0.04 1.02
2:34 pm 14:34 Cloudy with Light Rain 69 20.6 65 18.3 87 87 SSW 15 24 29.67 1005 4 6 0.04 1.02
2:43 pm 14:43 Cloudy with Rain 68 20 65 18.3 90 90 SW 13 20 29.67 1005 3 4 0.06 1.52
2:47 pm 14:47 Cloudy with Light Rain 66 19 64 18 94 94 W 24 39 29.67 1005 2 3 0.07 1.78
2:52 pm 14:52 Cloudy with Heavy Rain 63 17.2 59 15 87 87 WNW 28 44 29.69 1006 2 3 0.09 2.29
2:58 pm 14:58 Cloudy with Light Rain 62 16.7 59 15 90 90 WNW 23 37 29.71 1006 3 5 0.04 1.02
3:01 pm 15:01 Cloudy with Light Rain 62 16.7 59 15 90 90 WNW 20 31 29.71 1006 7 11 0.04 1.02
3:35 pm 15:35 Cloudy with Light Rain 59 15 57 13.9 93 93 WNW 15 24 29.73 1007 9 14 0.05 1.27
3:52 pm 15:52 Cloudy with Light Rain 58 14.4 55 12.8 90 90 NW 22 35 29.73 1007 8 13 0.05 1.27
4:31 pm 16:31 Cloudy with Rain 57 13.9 55 12.8 93 93 NW 15 24 29.78 1008 3 5 0.04 1.02
4:39 pm 16:39 Cloudy with Rain 57 13.9 54 12.2 90 90 NW 15 24 29.78 1008 2 3 0.06 1.52
4:52 pm 16:52 Cloudy with Light Rain 58 14.4 55 12.8 90 90 NW 15 24 29.76 1008 2 3 0.08 2.03
4:59 pm 16:59 Cloudy with Light Rain 58 14.4 55 12.8 90 90 NW 12 19 29.78 1008 3 5 0.00 0.00
5:52 pm 17:52 Cloudy 58 14.4 54 12.2 87 87 NW 10 17 29.77 1008 10 16 0.00 0.00
6:18 pm 18:18 Cloudy 57 13.9 53 11.7 87 87 NW 12 19 29.81 1009 10 16 0.00 0.00
6:52 pm 18:52 Cloudy 57 13.9 53 11.7 87 87 WNW 8 13 29.82 1010 10 16 0.00 0.00
7:05 pm 19:05 Cloudy 57 13.9 53 11.7 87 87 WNW 12 19 29.84 1010 10 16 0.00 0.00
7:52 pm 19:52 Mostly Cloudy 57 13.9 52 11.1 83 83 WNW 6 9 29.83 1010 10 16 0.01 0.25
8:52 pm 20:52 Mostly Cloudy 55 12.8 53 11.7 93 93 SSW 3 6 29.85 1011 10 16 0.00 0.00
9:52 pm 21:52 Mostly Cloudy 55 12.8 53 11.7 93 93 SSW 6 9 29.86 1011 10 16 0.00 0.00
10:52 pm 22:52 Mostly Cloudy 55 12.8 52 11.1 90 90 SSW 5 7 29.88 1012 10 16 0.00 0.00
11:52 pm 23:52 Mostly Clear 53 11.7 51 10.6 93 93 SSW 6 9 29.90 1013 10 16 0.00 0.00

Powered by AerisWeather